Wind_Speed
20 21 22 23 24 24 25 26 27 27 29 30 31 33 34 34 35 35 36 36 36 36 37 37 37 38 38 38 39 39 39 39 39 39 41 42 42 42 42 42 42 42 43
21 22 23 23 24 25 26 27 28 29 30 31 33 34 35 36 37 37 37 37 37 37 37 37 37 38 38 39 39 39 39 40 40 40 41 42 42 42 42 42 43 43 43
21 22 24 25 26 27 28 29 30 31 32 33 35 36 37 38 38 38 39 38 38 37 37 37 37 38 38 38 39 39 39 40 40 40 40 41 42 42 42 42 42 43 44
22 24 25 26 27 28 29 30 31 32 33 35 36 38 39 39 39 39 39 38 37 37 37 37 37 37 37 37 38 39 39 40 40 40 39 40 41 42 42 43 43 43 43
24 25 26 27 28 29 31 32 33 34 35 37 38 40 40 40 40 39 39 38 37 37 36 36 36 36 36 36 37 38 39 39 39 40 39 39 40 42 42 43 43 43 43
26 27 28 29 30 31 33 34 35 36 38 39 40 41 41 41 41 40 39 38 37 36 36 35 35 35 35 35 36 36 37 38 38 39 39 39 40 41 43 43 43 43 43
28 29 30 31 32 33 35 35 36 38 39 41 41 42 42 42 41 41 39 38 37 37 36 35 34 34 34 34 34 35 35 36 37 38 38 39 40 41 42 43 43 43 43
29 30 31 33 34 36 37 38 39 40 42 42 42 42 42 41 41 40 40 39 37 36 35 34 33 33 33 33 33 33 33 34 35 36 36 37 39 40 42 42 43 43 43
30 32 33 35 36 38 39 40 41 43 44 43 43 43 42 41 41 40 40 38 37 35 35 34 33 33 32 32 32 32 32 33 34 35 35 36 38 39 41 42 43 43 43
33 34 35 37 38 40 41 42 43 44 45 44 44 43 42 41 41 41 40 39 37 36 35 34 33 33 32 32 32 32 32 33 34 35 35 36 38 39 40 42 43 44 43
35 36 37 40 41 42 43 44 45 46 46 46 45 44 42 42 41 40 40 38 36 35 34 33 32 32 31 31 31 31 31 32 33 35 36 37 38 39 40 41 43 44 44
37 38 40 42 44 44 44 45 47 47 47 46 45 44 42 41 40 39 39 37 36 35 33 32 31 31 30 30 30 30 30 31 32 33 35 36 37 38 39 41 42 43 45
40 41 43 44 46 46 46 47 47 48 47 47 46 44 44 42 40 39 38 37 35 34 32 31 31 30 29 29 29 29 29 28 29 30 32 33 34 36 38 40 41 42 44
43 44 45 46 48 48 49 49 49 50 49 47 46 45 44 41 40 39 38 36 34 33 32 31 30 29 28 27 27 26 26 27 26 26 27 29 31 33 35 38 40 42 43
45 46 47 49 50 50 49 50 50 49 49 47 46 45 43 41 39 38 37 36 34 33 31 30 28 27 27 26 25 25 24 24 24 24 25 27 28 31 33 36 38 41 42
48 49 51 52 52 51 51 51 51 50 48 46 45 43 42 40 39 37 36 35 33 32 30 29 28 27 26 26 25 24 23 23 23 23 23 24 26 29 31 33 36 39 41
50 51 52 52 53 54 54 53 51 49 48 46 44 42 40 39 37 35 34 33 32 31 29 28 27 26 25 25 24 24 23 22 21 21 21 22 24 26 29 31 34 37 40
52 53 54 54 54 54 53 52 50 49 47 45 43 42 39 37 35 34 33 32 31 30 28 27 26 25 25 25 24 23 22 22 21 21 21 21 23 24 26 29 32 35 37
53 53 54 54 54 54 53 51 50 48 46 44 42 40 38 35 33 33 32 31 30 29 27 26 25 25 24 24 23 22 22 22 22 21 21 20 21 22 24 27 30 33 35
54 54 54 54 54 54 52 50 49 46 44 42 40 38 36 34 32 32 31 30 29 28 27 26 26 25 24 24 23 22 21 21 21 20 18 18 19 21 22 25 28 31 33
55 55 55 55 54 53 51 49 47 44 42 39 37 35 34 32 31 31 30 29 28 27 27 26 25 25 24 23 22 22 21 20 19 18 17 16 18 20 21 23 26 30 32
55 55 55 54 53 51 49 46 43 41 38 36 35 33 31 30 29 30 28 27 27 26 26 25 25 24 23 22 21 20 19 18 18 17 16 15 16 18 20 22 25 28 30
55 54 53 52 50 48 45 42 40 37 35 33 32 31 29 28 28 27 26 26 26 26 26 25 24 23 21 20 19 18 17 16 15 14 14 14 14 16 18 20 23 26 29
54 52 51 49 47 44 42 39 36 34 32 31 30 28 27 26 25 25 25 25 25 25 25 24 23 21 20 19 18 17 16 15 15 14 13 13 13 14 16 19 22 24 27
52 50 48 45 43 40 38 36 34 32 31 29 28 26 25 25 24 24 24 24 24 23 22 22 21 19 18 18 18 17 15 15 14 14 13 13 13 14 15 18 21 23 26
49 47 45 42 40 36 35 33 31 30 29 27 26 24 24 23 22 22 22 22 21 21 21 20 19 18 18 18 17 17 16 15 14 13 13 12 12 13 15 17 19 22 24
Wind_Direction
323 323 323 323 323 323 323 323 323 322 320 320 319 318 316 314 312 309 306 303 301 298 294 291 287 283 281 278 275 272 269 267 264 261 259 257 256 254 252 249 246 245 242
319 319 320 320 321 322 323 323 322 320 320 319 319 318 317 315 313 311 308 305 302 299 296 292 288 285 282 279 275 272 269 266 264 261 258 256 255 253 251 249 246 245 242
316 317 318 319 320 322 323 322 322 321 321 320 320 319 318 317 315 314 311 307 304 300 297 293 290 286 283 279 276 272 269 266 264 260 257 255 253 251 250 248 246 245 242
315 316 318 319 320 322 322 322 322 322 323 322 322 322 320 319 318 316 313 309 306 302 299 295 291 288 284 280 276 273 270 267 264 260 257 254 252 250 248 246 244 243 241
314 315 316 318 320 321 322 322 322 322 323 323 323 323 323 322 321 318 315 311 308 305 301 297 293 289 286 282 278 274 271 267 264 260 257 254 251 249 247 244 243 241 239
313 314 315 317 319 321 321 321 321 321 322 323 323 323 323 323 322 319 316 313 310 307 303 299 296 292 288 283 279 275 271 267 263 260 257 254 251 248 246 244 242 240 239
312 312 313 315 317 319 320 321 322 322 322 323 324 323 323 322 321 320 318 315 312 308 305 301 297 292 288 285 281 276 272 268 263 260 257 254 251 248 245 243 241 239 237
311 312 313 314 316 317 318 320 322 322 323 323 323 323 323 321 320 319 318 316 313 310 306 302 298 295 291 287 283 278 273 269 264 260 256 254 251 248 245 242 240 239 237
310 311 312 313 314 315 317 318 320 321 322 322 322 324 323 322 321 319 318 316 314 311 307 302 299 296 293 289 285 280 275 270 266 261 257 254 251 248 245 242 239 238 237
309 311 312 313 313 314 316 317 318 320 322 321 321 323 323 322 321 320 318 316 314 311 308 304 300 297 293 290 287 282 277 272 267 263 260 257 253 249 246 242 239 236 235
308 310 311 312 314 314 315 317 318 319 320 321 321 321 321 321 320 320 318 315 313 311 309 306 303 300 296 292 288 284 278 273 269 265 261 257 253 249 246 241 238 235 233
306 308 310 312 313 314 315 316 317 318 319 320 319 319 319 319 319 319 317 315 314 312 310 307 306 302 299 295 290 286 281 276 272 267 262 258 253 249 244 241 237 234 231
306 307 310 312 313 314 314 315 316 317 318 318 318 318 318 319 319 318 317 315 314 313 311 309 307 305 301 298 293 289 284 280 275 269 262 257 252 247 243 239 235 232 230
305 307 308 310 312 312 313 314 314 316 316 316 316 316 317 318 317 316 317 316 314 313 312 310 309 307 304 301 296 292 288 283 278 271 264 257 251 246 241 238 235 232 229
304 306 308 309 311 311 312 313 313 315 316 315 315 315 315 315 315 316 316 316 314 313 312 311 309 308 306 304 299 295 291 286 280 274 266 258 251 245 240 237 233 230 228
303 304 306 307 309 309 310 311 312 313 313 313 313 313 313 313 314 315 315 314 312 312 312 311 310 308 306 305 301 297 294 289 282 277 269 260 252 245 240 236 232 229 226
301 303 304 305 306 307 308 310 310 310 310 311 311 311 311 311 311 312 313 312 312 312 311 311 310 309 307 305 302 298 294 291 286 279 272 263 255 247 241 237 232 228 225
300 301 302 303 304 305 307 308 308 308 308 308 308 308 308 308 309 309 311 311 311 311 310 309 309 308 307 306 303 300 296 291 287 283 276 266 256 247 241 236 231 226 223
299 300 300 301 303 304 305 305 305 305 305 305 305 305 305 306 307 307 308 309 309 309 309 308 307 307 306 305 303 300 297 293 288 284 277 266 256 248 241 235 229 223 221
298 299 299 300 301 302 302 302 302 302 301 302 303 303 303 303 303 305 306 307 308 307 308 307 306 305 304 303 301 299 298 294 290 285 277 264 254 246 240 233 227 221 218
297 298 298 298 299 299 299 299 298 298 299 299 298 298 298 299 300 302 304 306 307 306 307 307 306 303 302 301 299 297 296 293 288 285 277 265 253 245 239 232 224 220 217
297 297 297 297 297 297 297 296 296 296 296 295 294 295 295 295 297 300 303 304 306 306 306 306 305 304 300 299 298 296 293 291 286 280 274 264 253 245 239 231 223 217 216
295 295 294 294 295 294 294 293 293 293 293 292 291 291 291 292 295 297 300 304 305 306 305 305 305 304 302 300 299 297 292 288 286 278 271 263 254 246 236 228 221 218 215
294 293 292 292 292 292 291 290 289 289 289 288 288 287 287 290 294 296 299 304 306 307 306 306 305 303 301 301 300 298 292 284 282 278 270 262 254 246 236 227 220 216 215
293 292 291 289 289 288 287 287 285 285 284 283 283 283 284 287 289 292 297 302 306 306 307 307 306 303 302 302 301 298 291 282 279 276 268 262 254 245 234 226 222 218 214
292 290 288 287 285 283 283 282 281 280 278 278 279 279 281 284 289 293 296 299 303 306 307 309 308 305 303 301 299 297 291 282 278 272 267 258 251 242 231 225 222 218 214
Height
5836 5834 5832 5829 5826 5823 5820 5816 5812 5809 5804 5800 5796 5792 5788 5783 5779 5775 5771 5767 5763 5760 5757 5755 5752 5750 5749 5748 5747 5747 5747 5748 5749 5751 5752 5754 5757 5761 5765 5769 5773 5777 5782
5833 5831 5828 5825 5822 5819 5815 5811 5807 5803 5799 5794 5789 5785 5780 5775 5770 5766 5761 5757 5753 5750 5746 5743 5741 5739 5737 5735 5735 5734 5735 5735 5737 5739 5740 5742 5745 5749 5753 5757 5761 5766 5771
5829 5827 5824 5821 5817 5814 5810 5806 5801 5797 5792 5787 5782 5777 5771 5766 5761 5756 5751 5747 5742 5739 5735 5732 5729 5727 5725 5723 5722 5722 5722 5723 5724 5726 5728 5730 5733 5737 5741 5745 5749 5754 5759
5825 5822 5819 5816 5812 5808 5804 5800 5795 5790 5785 5780 5774 5768 5763 5757 5752 5746 5741 5736 5732 5728 5724 5720 5717 5715 5713 5711 5710 5709 5709 5710 5711 5713 5716 5719 5722 5725 5729 5733 5738 5743 5748
5820 5817 5814 5810 5807 5802 5798 5793 5788 5783 5778 5772 5766 5760 5754 5748 5742 5737 5732 5726 5721 5717 5713 5709 5706 5704 5701 5699 5698 5697 5697 5697 5699 5700 5703 5706 5709 5712 5717 5721 5726 5731 5737
5815 5811 5808 5804 5800 5796 5791 5787 5781 5776 5770 5764 5758 5751 5745 5739 5733 5727 5722 5717 5712 5707 5703 5699 5695 5693 5690 5688 5686 5685 5685 5685 5686 5688 5691 5694 5697 5700 5704 5709 5714 5720 5726
5809 5805 5802 5798 5794 5789 5784 5779 5774 5768 5762 5756 5749 5743 5736 5730 5724 5718 5712 5707 5702 5697 5692 5688 5685 5682 5679 5677 5675 5673 5673 5673 5674 5676 5679 5682 5684 5688 5692 5697 5702 5707 5714
5802 5799 5795 5791 5786 5782 5777 5771 5766 5760 5754 5748 5741 5734 5727 5721 5715 5709 5703 5697 5692 5687 5682 5678 5675 5671 5668 5666 5664 5663 5662 5662 5662 5664 5667 5669 5672 5675 5679 5685 5689 5696 5702
5795 5792 5788 5784 5779 5774 5769 5763 5758 5752 5745 5739 5732 5725 5718 5712 5706 5700 5694 5688 5683 5678 5673 5668 5665 5661 5658 5655 5654 5652 5651 5651 5651 5652 5655 5657 5660 5663 5667 5672 5678 5684 5691
5788 5784 5780 5775 5771 5765 5760 5754 5749 5743 5736 5730 5723 5716 5709 5703 5697 5690 5684 5679 5674 5669 5664 5659 5655 5651 5648 5645 5643 5642 5641 5640 5640 5641 5642 5645 5647 5651 5655 5660 5666 5672 5678
5779 5775 5771 5767 5762 5757 5751 5745 5740 5733 5727 5720 5714 5707 5700 5694 5688 5682 5675 5670 5665 5660 5655 5650 5646 5642 5638 5635 5633 5631 5629 5629 5629 5629 5630 5632 5635 5638 5642 5647 5653 5659 5666
5771 5767 5762 5757 5752 5747 5741 5736 5730 5723 5717 5711 5704 5698 5691 5685 5679 5673 5667 5661 5656 5651 5646 5641 5637 5633 5629 5626 5623 5621 5619 5618 5617 5617 5618 5620 5622 5626 5630 5634 5640 5647 5654
5762 5757 5752 5747 5742 5737 5731 5725 5720 5713 5707 5701 5695 5688 5682 5676 5670 5664 5659 5653 5647 5642 5637 5632 5628 5624 5620 5617 5613 5611 5609 5607 5606 5606 5606 5608 5610 5613 5617 5622 5628 5634 5641
5752 5747 5742 5737 5732 5727 5721 5715 5709 5703 5697 5690 5684 5678 5672 5666 5661 5655 5650 5644 5639 5634 5629 5625 5620 5615 5612 5608 5605 5602 5599 5598 5596 5596 5596 5597 5599 5602 5606 5611 5616 5622 5629
5741 5736 5731 5726 5721 5716 5710 5704 5699 5693 5686 5680 5675 5669 5663 5658 5652 5646 5641 5635 5630 5626 5621 5617 5612 5608 5604 5600 5597 5594 5592 5589 5588 5587 5587 5587 5589 5592 5596 5600 5605 5611 5618
5730 5725 5720 5715 5710 5704 5699 5694 5688 5682 5676 5670 5664 5659 5654 5648 5643 5638 5633 5627 5622 5618 5613 5609 5605 5601 5597 5593 5590 5587 5584 5582 5580 5579 5579 5579 5580 5583 5586 5590 5595 5601 5608
5718 5713 5708 5703 5697 5692 5687 5681 5676 5671 5665 5660 5655 5650 5645 5640 5634 5629 5625 5620 5615 5610 5606 5602 5598 5594 5590 5586 5583 5580 5578 5575 5574 5572 5572 5572 5573 5574 5577 5581 5585 5591 5598
5705 5700 5695 5690 5685 5680 5675 5669 5664 5659 5654 5649 5644 5640 5635 5631 5626 5621 5616 5612 5608 5603 5599 5595 5591 5587 5583 5580 5577 5574 5571 5569 5567 5566 5565 5564 5565 5567 5569 5573 5577 5583 5589
5691 5686 5682 5677 5671 5667 5662 5656 5651 5647 5642 5638 5633 5629 5625 5621 5617 5613 5608 5604 5600 5596 5592 5588 5584 5581 5577 5574 5570 5568 5565 5563 5561 5559 5558 5557 5558 5559 5562 5565 5569 5574 5581
5677 5673 5668 5662 5658 5653 5648 5643 5639 5634 5630 5626 5623 5619 5615 5612 5608 5605 5601 5597 5593 5589 5585 5581 5578 5574 5570 5567 5564 5562 5559 5557 5554 5553 5551 5551 5551 5553 5555 5558 5562 5567 5574
5662 5658 5653 5648 5643 5639 5634 5630 5626 5622 5618 5615 5612 5609 5606 5602 5599 5596 5593 5589 5585 5581 5578 5574 5570 5567 5564 5561 5558 5556 5553 5551 5549 5547 5546 5546 5546 5547 5549 5552 5556 5561 5567
5646 5641 5637 5632 5628 5624 5620 5616 5612 5609 5607 5604 5601 5599 5597 5594 5591 5588 5585 5581 5578 5574 5571 5567 5564 5561 5557 5555 5552 5550 5547 5545 5543 5542 5541 5541 5541 5542 5544 5547 5551 5555 5561
5629 5625 5621 5617 5613 5610 5606 5603 5600 5598 5595 5593 5591 5589 5587 5585 5583 5580 5577 5574 5571 5567 5564 5561 5557 5554 5551 5548 5546 5544 5542 5540 5539 5537 5537 5537 5537 5538 5539 5542 5546 5550 5555
5612 5608 5605 5601 5598 5595 5593 5591 5589 5586 5585 5583 5582 5580 5579 5577 5575 5573 5570 5567 5564 5561 5557 5554 5551 5548 5545 5543 5540 5539 5537 5536 5534 5533 5533 5533 5533 5534 5536 5538 5542 5546 5550
5595 5592 5588 5586 5583 5582 5580 5578 5577 5575 5575 5574 5573 5572 5570 5569 5567 5565 5563 5560 5558 5555 5551 5548 5545 5542 5540 5537 5535 5534 5532 5531 5530 5529 5529 5529 5530 5531 5532 5535 5538 5542 5546
5578 5575 5573 5571 5569 5568 5567 5566 5565 5565 5564 5564 5564 5563 5563 5561 5560 5559 5557 5554 5552 5549 5546 5543 5540 5538 5535 5533 5531 5529 5527 5527 5526 5526 5525 5526 5526 5527 5529 5532 5535 5538 5543